Home > Weather > Norway > Ålesund > Past weeks

Flag for Norway Weather past 2 weeks in Ålesund, Norway

41 °F


Feels Like: 33 °F
Forecast: 42 / 44 °F
Wind: 15 mph from Southeast

Location: Alesund / Vigra

Current Time: Dec 2, 2015 at 4:57:49 AM

Latest Report: Dec 2, 2015 at 3:50 AM

Visibility: N/A

Pressure: 29.68 "Hg

Humidity: 61%

Dew point: 28 °F

Location of ÅlesundLocation

Historic Weather in Ålesund — Graph


Ålesund temperature yesterday

Maximum temperature yesterday: 43 °F (at 9:50 AM)
Minimum temperature yesterday: 36 °F (at 12:20 AM)
Average temperature yesterday: 41 °F

Past Weeks' High & Low Weather Summary

High52 °F (Nov 27, 8:50 AM)100% (Nov 18, 4:50 AM)29.92 "Hg (Nov 18, 4:50 AM)
Low28 °F (Nov 21, 9:50 PM)47% (Nov 17, 11:50 AM)28.68 "Hg (Nov 29, 5:50 PM)
Average40 °F80%29.35 "Hg
* Reported Nov 17 3:20 AM — Dec 2 3:20 AM, Ålesund, Weather by CustomWeather, © 2015

Note: Actual official high and low records may vary slightly from our data, if they occured in-between our weather recording intervals... More about our weather records


Ålesund weather history for previous 24 hours

Time TempWeatherWind HumidityBarometerVisibility
3:20 AM
Wed, Dec 2
39 °FOvercast.15 mph65%29.71 "HgN/A
2:50 AM39 °FOvercast.15 mph70%29.71 "HgN/A
2:20 AM39 °FPassing clouds.14 mph70%29.74 "HgN/A
1:50 AM39 °FPassing clouds.14 mph75%29.74 "HgN/A
1:20 AM39 °FPassing clouds.18 mph75%29.77 "HgN/A
12:50 AM39 °FChilly.17 mph75%29.77 "HgN/A
12:20 AM39 °FPassing clouds.14 mph75%29.80 "HgN/A
11:50 PM
Tue, Dec 1
39 °FChilly.15 mph81%29.80 "HgN/A
11:20 PM39 °FChilly.15 mph81%29.83 "HgN/A
10:50 PM39 °FPassing clouds.14 mph81%29.83 "HgN/A
10:20 PM39 °FPassing clouds.14 mph81%29.83 "HgN/A
9:50 PM39 °FPassing clouds.10 mph75%29.86 "HgN/A
9:20 PM41 °FPassing clouds.7 mph76%29.86 "HgN/A
8:50 PM39 °FPassing clouds.7 mph75%29.86 "HgN/A
8:20 PM41 °FPartly cloudy.9 mph76%29.86 "HgN/A
7:50 PM39 °FPartly cloudy.7 mph81%29.86 "HgN/A
7:20 PM39 °FScattered showers. Passing clouds.7 mph75%29.83 "HgN/A
6:50 PM41 °FPassing clouds.7 mph70%29.83 "HgN/A
6:20 PM41 °FScattered showers. Passing clouds.8 mph70%29.83 "HgN/A
5:50 PM43 °FSprinkles. Passing clouds.7 mph71%29.83 "HgN/A
4:50 PM41 °FScattered showers. Passing clouds.13 mph66%29.83 "HgN/A
4:20 PM43 °FScattered showers. Passing clouds.15 mph66%29.80 "HgN/A
3:50 PM43 °FScattered showers. Passing clouds.14 mph66%29.80 "HgN/A
3:20 PM43 °FScattered showers. Partly cloudy.18 mph66%29.80 "HgN/A
2:50 PM41 °FScattered showers. Scattered clouds.15 mph76%29.77 "HgN/A
2:20 PM43 °FScattered showers. Scattered clouds.18 mph66%29.77 "HgN/A
1:50 PM43 °FRain showers. Scattered clouds.18 mph71%29.74 "HgN/A
1:20 PM43 °FScattered showers. Scattered clouds.15 mph66%29.74 "HgN/A
12:50 PM43 °FScattered showers. Scattered clouds.17 mph66%29.71 "HgN/A
12:20 PM43 °FScattered showers. Scattered clouds.22 mph66%29.68 "HgN/A
11:50 AM43 °FScattered showers. Broken clouds.16 mph71%29.68 "HgN/A
11:20 AM43 °FBroken clouds.17 mph71%29.65 "HgN/A
10:50 AM43 °FScattered showers. Scattered clouds.21 mph61%29.65 "HgN/A
10:20 AM43 °FScattered showers. Scattered clouds.18 mph66%29.62 "HgN/A
9:50 AM43 °FScattered showers. Broken clouds.20 mph66%29.59 "HgN/A
8:50 AM41 °FLight rain. Partly cloudy.16 mph76%29.56 "HgN/A
8:20 AM39 °FScattered showers. Passing clouds.15 mph75%29.56 "HgN/A
7:50 AM41 °FPartly cloudy.22 mph70%29.53 "HgN/A
7:20 AM39 °FPartly cloudy.23 mph81%29.53 "HgN/A
6:50 AM37 °FPartly cloudy.16 mph81%29.53 "HgN/A
6:20 AM39 °FPartly cloudy.16 mph75%29.50 "HgN/A
5:50 AM41 °FPartly cloudy.17 mph66%29.50 "HgN/A
4:50 AM41 °FPassing clouds.15 mph61%29.47 "HgN/A
4:20 AM39 °FPassing clouds.14 mph75%29.47 "HgN/A
Weather by CustomWeather, © 2015

See weather overviewHow to use our weather pages